SCP
0 0 0 0 0 0 0 0 0 0 0 0 0 0 0 0 0 1 0 0 0 0 0 0 0 0 0 0 0 0 0 0 0 0 0 0 0 0 0 0 0 0 0
0 0 0 0 0 0 0 0 0 0 0 0 0 0 0 0 1 0 0 0 0 0 0 0 0 0 0 0 0 0 0 0 0 0 0 0 0 0 0 0 0 0 0
0 0 0 0 0 0 0 0 0 0 0 0 0 0 0 0 0 0 0 0 0 0 0 0 0 0 1 0 0 0 0 0 0 0 0 0 0 0 0 0 0 0 0
0 0 0 0 0 0 0 0 0 0 0 0 0 0 0 0 0 0 0 0 0 0 0 0 0 0 0 0 0 0 0 0 0 0 0 0 0 0 0 0 0 0 0
0 0 0 0 0 0 0 0 0 0 0 0 0 0 0 0 0 0 0 0 0 0 0 0 0 0 0 0 0 0 0 0 0 0 0 0 0 0 0 0 0 0 0
0 0 0 0 0 0 0 0 0 0 0 0 0 0 0 0 0 0 0 0 0 0 0 0 0 0 0 0 0 0 0 0 0 0 0 0 0 0 0 0 0 0 0
0 0 0 0 0 0 0 0 0 0 0 0 0 0 0 0 0 0 0 0 0 0 0 0 0 0 0 0 0 0 0 0 0 0 0 0 0 0 0 0 0 0 0
0 0 0 0 0 0 0 0 0 0 0 0 0 0 0 0 0 0 0 0 0 0 0 0 0 0 0 0 0 0 0 0 0 0 0 0 0 0 0 0 0 0 0
0 0 0 0 0 0 0 0 0 0 0 0 0 0 0 0 0 0 0 0 0 0 0 0 0 0 0 0 0 0 0 0 0 0 0 0 0 0 0 0 0 0 0
0 0 0 0 0 0 0 0 0 0 0 0 0 0 0 0 0 0 0 0 0 0 0 0 0 0 0 0 0 0 0 0 0 0 0 0 0 0 0 0 0 0 0
0 0 0 0 0 0 0 0 0 0 0 0 0 0 0 0 0 0 0 0 0 0 0 0 0 0 0 0 0 0 0 0 0 0 0 0 0 0 0 0 0 0 0
0 0 0 0 0 0 0 0 0 0 0 0 0 0 0 0 0 0 0 0 0 0 0 0 0 0 0 0 0 0 0 0 0 0 0 0 -0 -0 -0 -0 -0 0 0
0 0 0 0 0 0 0 0 0 0 0 0 0 0 0 0 0 0 0 0 0 0 0 0 0 0 0 0 0 0 0 0 0 0 -0 -0 0 -0 -0 0 -0 -0 0
0 0 0 0 0 0 0 0 0 0 0 0 0 0 0 0 0 0 0 0 0 0 0 0 0 0 0 0 0 0 0 0 0 -0 -0 -0 -0 -0 -0 -0 -0 -0 -0
0 0 0 0 0 0 0 0 0 0 0 0 0 0 0 0 0 0 0 0 0 0 0 0 0 0 0 0 0 0 0 0 0 0 0 -0 -0 -0 -0 -0 0 0 0
0 0 0 0 0 0 0 0 0 0 0 0 0 0 0 0 0 0 0 0 0 0 0 0 0 0 0 0 0 0 0 0 0 0 0 0 0 0 0 0 0 0 0
0 0 0 0 0 0 0 0 0 0 0 0 0 0 0 0 0 0 0 0 0 0 0 0 0 0 0 0 0 0 0 0 0 0 0 0 0 0 0 0 0 0 0
0 0 0 0 0 0 0 0 0 0 0 0 0 0 0 0 0 0 0 0 0 0 0 0 0 0 0 0 0 0 0 0 0 0 0 0 0 0 0 0 0 0 0
0 0 0 0 0 0 0 0 0 0 0 0 0 0 0 0 0 0 0 0 0 0 0 0 0 0 0 0 0 0 0 0 0 0 0 0 0 0 0 0 0 0 0
0 0 0 0 0 0 0 0 0 0 0 0 0 0 0 0 0 0 0 0 0 0 0 0 0 0 0 0 0 0 0 0 0 0 0 0 0 0 0 0 0 0 0
0 0 0 0 0 0 0 0 0 0 0 0 0 0 0 0 0 0 0 0 0 0 0 0 0 0 0 0 0 0 0 0 0 0 0 0 0 0 0 0 0 0 0
0 0 0 0 0 0 0 0 0 0 0 0 0 0 0 0 0 0 0 0 0 0 0 0 0 0 0 0 0 0 0 0 0 0 0 0 0 0 0 0 0 0 0
0 0 0 0 0 0 0 0 0 0 0 0 0 0 0 0 0 0 0 0 0 0 0 0 0 0 0 0 0 0 0 0 0 0 0 0 0 0 0 0 0 0 0
0 0 0 0 0 0 0 0 0 0 0 0 0 0 0 0 0 0 0 0 0 0 0 0 0 0 0 0 0 0 0 0 0 0 0 0 0 0 0 0 0 0 0
0 0 0 0 0 0 0 0 0 0 0 0 0 0 0 0 0 0 0 0 0 0 0 0 0 0 0 0 0 0 0 0 0 0 0 0 0 0 0 0 0 0 0
0 0 0 0 0 0 0 0 0 0 0 0 0 0 0 0 0 0 0 0 0 0 0 0 0 0 0 0 0 0 0 0 0 0 0 0 0 0 0 0 0 0 0
Wind_Speed_500mb
35 23 12 24 28 32 36 40 43 43 42 33 31 31 28 26 25 28 30 34 31 32 38 39 34 35 37 44 44 50 52 56 59 64 72 81 80 74 69 59 59 65 52
18 14 20 19 20 23 25 28 31 32 34 28 14 16 12 12 14 20 18 19 27 27 31 29 30 32 36 39 42 43 48 53 55 60 62 45 54 52 54 60 64 66 61
10 5 5 8 11 13 14 16 17 19 21 20 24 20 16 17 21 19 16 16 19 18 22 24 25 28 31 40 46 48 49 53 55 58 53 32 36 47 48 51 56 65 63
7 6 2 7 8 8 8 9 9 9 8 7 9 11 13 15 16 14 15 15 16 20 24 26 31 32 35 35 38 44 45 47 53 56 58 66 68 54 55 56 51 63 72
5 2 4 6 5 5 2 1 3 5 5 5 5 8 8 8 8 6 5 4 7 12 14 16 18 21 25 30 35 40 42 41 49 52 56 63 67 66 66 64 69 67 70
4 2 4 4 5 5 4 2 2 2 4 5 7 8 8 6 4 3 5 6 7 10 12 15 17 21 24 28 32 35 38 38 35 41 48 51 59 65 64 63 69 76 77
8 6 5 6 9 8 7 5 5 5 6 7 7 7 7 6 3 2 4 6 9 12 15 18 21 24 28 31 34 36 38 39 40 39 43 48 49 53 64 70 74 72 76
10 10 10 10 11 11 9 8 7 7 7 7 7 7 6 5 7 9 12 15 17 20 22 24 24 26 28 31 33 35 36 38 41 41 43 50 51 56 54 50 61 70 73
13 13 14 14 13 12 10 9 8 5 3 3 4 5 7 9 11 14 17 20 23 26 28 29 30 29 28 28 29 31 35 38 41 44 48 51 51 51 57 63 71 75 67
20 19 17 18 17 16 13 10 8 6 4 1 4 8 12 14 16 19 22 24 25 25 26 27 26 25 26 27 28 29 31 34 38 43 47 49 52 56 58 59 58 56 56
24 21 22 23 23 19 16 15 13 10 7 3 1 7 12 18 23 25 27 27 24 22 19 18 19 21 23 25 29 33 38 44 48 51 54 56 58 60 62 63 63 61 54
27 25 27 28 28 26 23 20 17 12 9 6 4 7 12 17 20 22 23 22 22 21 18 19 21 23 27 31 37 41 45 51 56 59 62 64 65 67 68 70 71 73 68
30 31 31 32 31 32 30 25 20 15 10 6 6 11 15 18 20 20 19 15 14 15 17 19 22 26 29 35 39 46 52 56 60 62 65 67 69 72 74 75 76 75 71
39 38 38 38 39 38 34 30 24 18 12 9 8 11 16 19 18 15 13 14 14 15 17 20 23 27 31 37 44 50 55 59 61 64 67 71 74 78 81 80 76 72 76
48 49 47 47 45 43 40 34 29 22 15 13 15 13 10 17 17 12 11 11 12 15 18 21 26 30 33 43 50 54 56 58 61 63 68 71 73 74 73 74 76 75 79
60 58 53 53 53 49 44 37 30 23 17 17 9 10 12 15 8 7 9 12 14 16 20 25 31 34 36 44 49 55 59 59 62 67 68 69 72 73 73 68 69 68 73
69 67 67 64 58 52 43 37 31 24 16 12 10 9 10 9 4 6 9 14 18 20 24 27 30 33 36 41 45 47 51 54 58 62 66 70 70 74 82 87 89 89 84
66 70 69 60 58 52 44 38 30 20 16 13 10 8 6 1 4 8 13 16 19 23 25 28 31 33 37 44 49 51 50 50 52 54 58 63 67 68 75 82 87 91 93
62 64 63 60 54 49 41 32 25 22 14 11 12 8 5 4 6 9 13 16 18 22 25 28 33 36 38 43 50 55 55 55 56 57 60 65 70 74 79 85 89 90 88
60 65 63 62 52 45 39 32 26 19 13 15 11 6 5 5 9 13 16 19 22 24 26 27 32 37 40 44 50 55 58 59 62 61 63 66 70 73 73 73 77 88 96
59 56 51 50 45 39 34 30 25 17 18 15 9 6 6 9 11 15 18 22 25 27 29 30 32 35 39 44 48 52 54 56 61 62 67 68 69 68 64 63 63 67 77
46 47 48 47 43 38 33 27 23 24 19 13 9 5 6 10 13 15 17 20 23 24 27 29 32 35 39 43 47 51 50 51 56 58 62 65 65 63 59 60 60 63 67
43 46 47 46 43 37 31 28 26 24 18 12 6 3 5 8 12 15 19 20 22 25 27 29 35 40 41 43 51 54 55 54 57 54 55 58 58 57 54 55 59 63 69
43 47 44 41 40 35 32 32 27 21 16 11 6 4 7 10 14 17 20 23 25 27 30 32 34 41 43 47 55 59 56 55 55 57 57 54 53 53 56 58 60 64 69
48 46 43 39 35 38 35 30 26 21 15 9 6 4 6 10 14 16 19 22 25 27 30 32 33 41 43 44 44 49 53 55 55 56 54 55 59 63 64 65 66 68 69
48 46 43 42 41 36 33 28 22 18 13 9 4 3 7 10 14 17 19 19 21 24 27 28 32 37 38 39 44 46 48 50 52 51 54 58 62 66 70 72 74 72 73
Wind_Direction_500mb
280 277 280 278 279 275 272 267 267 271 276 272 266 262 257 257 253 249 246 249 252 252 266 275 270 267 277 279 282 284 283 278 278 283 280 282 283 280 285 285 291 288 287
262 263 267 289 287 278 274 272 268 268 264 250 247 243 245 237 229 237 248 249 251 254 259 269 273 276 273 279 284 290 289 284 276 279 289 288 297 278 286 297 299 298 294
267 222 292 297 294 303 299 292 286 280 274 249 233 226 218 209 224 233 259 283 291 288 275 266 271 279 281 284 290 293 295 293 287 284 280 284 281 293 286 284 286 292 288
109 111 22 318 304 295 294 300 303 304 291 222 202 207 201 223 243 264 275 274 273 269 276 272 271 272 275 276 277 284 291 295 293 293 288 282 280 290 297 293 281 282 280
113 53 319 304 275 258 272 16 18 22 53 95 142 163 175 185 219 232 247 263 278 285 298 298 297 297 295 292 292 285 281 286 290 294 299 297 295 293 279 285 291 293 291
149 202 249 223 224 218 220 204 151 112 109 113 127 144 157 159 189 222 246 260 285 296 307 309 308 307 305 303 302 301 300 297 290 294 294 297 294 294 291 289 293 285 293
154 152 182 205 212 211 213 199 170 149 136 126 123 124 125 122 115 53 354 337 327 324 326 324 320 318 316 313 311 312 312 311 303 292 293 288 293 306 302 296 296 294 295
177 180 201 208 214 213 204 186 176 166 147 126 110 90 66 41 16 1 350 342 336 332 328 324 320 315 313 312 312 315 314 312 312 311 303 297 291 292 298 310 324 314 302
184 190 202 208 212 209 203 196 185 162 130 88 62 42 20 5 353 342 335 329 327 326 328 327 328 325 323 321 321 321 320 320 320 320 319 318 316 307 300 296 295 308 312
190 195 204 212 211 209 205 200 191 179 168 96 9 357 347 339 333 327 323 321 321 322 323 326 327 330 334 337 337 339 335 335 334 330 328 327 324 322 318 314 310 306 302
201 199 213 217 217 214 210 206 204 197 187 179 351 349 342 335 330 327 324 320 318 315 318 329 337 345 353 354 351 350 345 344 342 341 338 337 334 332 329 326 322 321 316
203 209 217 219 219 219 218 216 215 212 214 229 297 333 333 327 323 321 321 321 321 326 335 349 359 358 359 357 354 350 349 345 342 339 337 336 334 332 331 329 325 322 320
204 212 216 218 217 219 221 222 223 225 231 259 318 328 326 326 323 323 320 322 331 339 356 4 5 4 360 358 353 349 347 344 341 339 337 336 334 332 330 325 322 322 319
218 218 217 216 218 220 221 224 225 223 235 266 302 319 322 320 319 327 333 342 350 5 12 12 9 6 0 353 348 346 345 343 342 340 340 340 339 336 334 331 326 320 314
220 221 216 215 218 219 221 223 226 234 240 274 287 296 310 318 314 330 338 353 4 6 10 12 9 5 355 351 348 347 346 344 342 342 340 340 339 338 336 331 326 322 317
225 221 217 217 216 218 219 223 230 235 242 257 279 319 324 304 313 326 359 5 11 13 11 11 8 3 357 353 352 350 349 348 347 344 342 339 337 332 329 321 316 314 314
228 222 218 217 216 218 219 222 226 225 222 245 252 253 258 264 298 4 14 12 10 18 12 11 6 1 353 348 346 348 349 350 348 345 342 340 337 333 326 321 317 315 315
224 225 214 212 213 213 213 216 216 220 228 235 244 226 221 227 45 25 17 14 8 11 7 2 0 357 352 349 349 348 348 349 347 346 343 338 335 334 331 327 323 320 317
226 207 208 210 209 207 208 208 207 218 209 206 222 200 163 96 52 31 16 7 4 6 1 358 355 354 352 350 352 350 348 349 348 347 346 343 341 341 340 335 332 327 322
196 196 202 208 204 201 202 207 209 209 209 212 195 163 130 75 31 16 9 2 357 358 356 354 356 356 355 356 358 356 349 347 347 347 346 345 345 345 343 338 338 333 333
197 203 204 199 196 199 203 204 198 187 200 187 165 118 63 34 20 10 1 356 355 356 356 354 356 355 354 354 358 359 352 350 346 345 344 345 345 344 343 340 343 341 337
196 195 190 186 187 188 186 183 180 179 179 168 148 110 52 25 11 0 357 354 355 356 356 354 351 353 354 350 352 353 354 350 347 345 343 342 341 342 345 344 342 343 344
188 184 184 183 181 179 176 169 178 172 166 159 142 98 42 20 10 2 358 357 358 354 352 352 345 346 351 344 343 346 347 347 347 345 341 337 337 339 343 347 349 352 356
183 178 177 175 173 167 169 173 169 164 163 165 149 82 37 20 7 1 356 353 353 352 352 347 344 342 346 346 346 345 347 347 347 346 343 341 341 343 346 350 355 359 2
178 178 175 172 168 169 165 164 168 166 164 157 135 82 31 8 359 355 354 353 351 351 351 346 343 339 346 349 348 348 348 347 348 344 341 345 350 353 354 357 359 359 0
173 171 169 170 168 163 164 163 162 166 161 149 122 29 6 356 350 350 351 353 350 346 344 340 341 338 340 340 343 346 347 345 344 344 347 353 356 358 358 358 358 1 1
Wind_Speed_850mb
35 23 12 24 28 32 36 40 43 43 42 33 31 31 28 26 25 28 30 34 31 32 38 39 34 35 37 44 44 50 52 56 59 64 72 81 80 74 69 59 59 65 52
18 14 20 19 20 23 25 28 31 32 34 28 14 16 12 12 14 20 18 19 27 27 31 29 30 32 36 39 42 43 48 53 55 60 62 45 54 52 54 60 64 66 61
10 5 5 8 11 13 14 16 17 19 21 20 24 20 16 17 21 19 16 16 19 18 22 24 25 28 31 40 46 48 49 53 55 58 53 32 36 47 48 51 56 65 63
7 6 2 7 8 8 8 9 9 9 8 7 9 11 13 15 16 14 15 15 16 20 24 26 31 32 35 35 38 44 45 47 53 56 58 66 68 54 55 56 51 63 72
5 2 4 6 5 5 2 1 3 5 5 5 5 8 8 8 8 6 5 4 7 12 14 16 18 21 25 30 35 40 42 41 49 52 56 63 67 66 66 64 69 67 70
4 2 4 4 5 5 4 2 2 2 4 5 7 8 8 6 4 3 5 6 7 10 12 15 17 21 24 28 32 35 38 38 35 41 48 51 59 65 64 63 69 76 77
8 6 5 6 9 8 7 5 5 5 6 7 7 7 7 6 3 2 4 6 9 12 15 18 21 24 28 31 34 36 38 39 40 39 43 48 49 53 64 70 74 72 76
10 10 10 10 11 11 9 8 7 7 7 7 7 7 6 5 7 9 12 15 17 20 22 24 24 26 28 31 33 35 36 38 41 41 43 50 51 56 54 50 61 70 73
13 13 14 14 13 12 10 9 8 5 3 3 4 5 7 9 11 14 17 20 23 26 28 29 30 29 28 28 29 31 35 38 41 44 48 51 51 51 57 63 71 75 67
20 19 17 18 17 16 13 10 8 6 4 1 4 8 12 14 16 19 22 24 25 25 26 27 26 25 26 27 28 29 31 34 38 43 47 49 52 56 58 59 58 56 56
24 21 22 23 23 19 16 15 13 10 7 3 1 7 12 18 23 25 27 27 24 22 19 18 19 21 23 25 29 33 38 44 48 51 54 56 58 60 62 63 63 61 54
27 25 27 28 28 26 23 20 17 12 9 6 4 7 12 17 20 22 23 22 22 21 18 19 21 23 27 31 37 41 45 51 56 59 62 64 65 67 68 70 71 73 68
30 31 31 32 31 32 30 25 20 15 10 6 6 11 15 18 20 20 19 15 14 15 17 19 22 26 29 35 39 46 52 56 60 62 65 67 69 72 74 75 76 75 71
39 38 38 38 39 38 34 30 24 18 12 9 8 11 16 19 18 15 13 14 14 15 17 20 23 27 31 37 44 50 55 59 61 64 67 71 74 78 81 80 76 72 76
48 49 47 47 45 43 40 34 29 22 15 13 15 13 10 17 17 12 11 11 12 15 18 21 26 30 33 43 50 54 56 58 61 63 68 71 73 74 73 74 76 75 79
60 58 53 53 53 49 44 37 30 23 17 17 9 10 12 15 8 7 9 12 14 16 20 25 31 34 36 44 49 55 59 59 62 67 68 69 72 73 73 68 69 68 73
69 67 67 64 58 52 43 37 31 24 16 12 10 9 10 9 4 6 9 14 18 20 24 27 30 33 36 41 45 47 51 54 58 62 66 70 70 74 82 87 89 89 84
66 70 69 60 58 52 44 38 30 20 16 13 10 8 6 1 4 8 13 16 19 23 25 28 31 33 37 44 49 51 50 50 52 54 58 63 67 68 75 82 87 91 93
62 64 63 60 54 49 41 32 25 22 14 11 12 8 5 4 6 9 13 16 18 22 25 28 33 36 38 43 50 55 55 55 56 57 60 65 70 74 79 85 89 90 88
60 65 63 62 52 45 39 32 26 19 13 15 11 6 5 5 9 13 16 19 22 24 26 27 32 37 40 44 50 55 58 59 62 61 63 66 70 73 73 73 77 88 96
59 56 51 50 45 39 34 30 25 17 18 15 9 6 6 9 11 15 18 22 25 27 29 30 32 35 39 44 48 52 54 56 61 62 67 68 69 68 64 63 63 67 77
46 47 48 47 43 38 33 27 23 24 19 13 9 5 6 10 13 15 17 20 23 24 27 29 32 35 39 43 47 51 50 51 56 58 62 65 65 63 59 60 60 63 67
43 46 47 46 43 37 31 28 26 24 18 12 6 3 5 8 12 15 19 20 22 25 27 29 35 40 41 43 51 54 55 54 57 54 55 58 58 57 54 55 59 63 69
43 47 44 41 40 35 32 32 27 21 16 11 6 4 7 10 14 17 20 23 25 27 30 32 34 41 43 47 55 59 56 55 55 57 57 54 53 53 56 58 60 64 69
48 46 43 39 35 38 35 30 26 21 15 9 6 4 6 10 14 16 19 22 25 27 30 32 33 41 43 44 44 49 53 55 55 56 54 55 59 63 64 65 66 68 69
48 46 43 42 41 36 33 28 22 18 13 9 4 3 7 10 14 17 19 19 21 24 27 28 32 37 38 39 44 46 48 50 52 51 54 58 62 66 70 72 74 72 73
Wind_Direction_850mb
280 277 280 278 279 275 272 267 267 271 276 272 266 262 257 257 253 249 246 249 252 252 266 275 270 267 277 279 282 284 283 278 278 283 280 282 283 280 285 285 291 288 287
262 263 267 289 287 278 274 272 268 268 264 250 247 243 245 237 229 237 248 249 251 254 259 269 273 276 273 279 284 290 289 284 276 279 289 288 297 278 286 297 299 298 294
267 222 292 297 294 303 299 292 286 280 274 249 233 226 218 209 224 233 259 283 291 288 275 266 271 279 281 284 290 293 295 293 287 284 280 284 281 293 286 284 286 292 288
109 111 22 318 304 295 294 300 303 304 291 222 202 207 201 223 243 264 275 274 273 269 276 272 271 272 275 276 277 284 291 295 293 293 288 282 280 290 297 293 281 282 280
113 53 319 304 275 258 272 16 18 22 53 95 142 163 175 185 219 232 247 263 278 285 298 298 297 297 295 292 292 285 281 286 290 294 299 297 295 293 279 285 291 293 291
149 202 249 223 224 218 220 204 151 112 109 113 127 144 157 159 189 222 246 260 285 296 307 309 308 307 305 303 302 301 300 297 290 294 294 297 294 294 291 289 293 285 293
154 152 182 205 212 211 213 199 170 149 136 126 123 124 125 122 115 53 354 337 327 324 326 324 320 318 316 313 311 312 312 311 303 292 293 288 293 306 302 296 296 294 295
177 180 201 208 214 213 204 186 176 166 147 126 110 90 66 41 16 1 350 342 336 332 328 324 320 315 313 312 312 315 314 312 312 311 303 297 291 292 298 310 324 314 302
184 190 202 208 212 209 203 196 185 162 130 88 62 42 20 5 353 342 335 329 327 326 328 327 328 325 323 321 321 321 320 320 320 320 319 318 316 307 300 296 295 308 312
190 195 204 212 211 209 205 200 191 179 168 96 9 357 347 339 333 327 323 321 321 322 323 326 327 330 334 337 337 339 335 335 334 330 328 327 324 322 318 314 310 306 302
201 199 213 217 217 214 210 206 204 197 187 179 351 349 342 335 330 327 324 320 318 315 318 329 337 345 353 354 351 350 345 344 342 341 338 337 334 332 329 326 322 321 316
203 209 217 219 219 219 218 216 215 212 214 229 297 333 333 327 323 321 321 321 321 326 335 349 359 358 359 357 354 350 349 345 342 339 337 336 334 332 331 329 325 322 320
204 212 216 218 217 219 221 222 223 225 231 259 318 328 326 326 323 323 320 322 331 339 356 4 5 4 360 358 353 349 347 344 341 339 337 336 334 332 330 325 322 322 319
218 218 217 216 218 220 221 224 225 223 235 266 302 319 322 320 319 327 333 342 350 5 12 12 9 6 0 353 348 346 345 343 342 340 340 340 339 336 334 331 326 320 314
220 221 216 215 218 219 221 223 226 234 240 274 287 296 310 318 314 330 338 353 4 6 10 12 9 5 355 351 348 347 346 344 342 342 340 340 339 338 336 331 326 322 317
225 221 217 217 216 218 219 223 230 235 242 257 279 319 324 304 313 326 359 5 11 13 11 11 8 3 357 353 352 350 349 348 347 344 342 339 337 332 329 321 316 314 314
228 222 218 217 216 218 219 222 226 225 222 245 252 253 258 264 298 4 14 12 10 18 12 11 6 1 353 348 346 348 349 350 348 345 342 340 337 333 326 321 317 315 315
224 225 214 212 213 213 213 216 216 220 228 235 244 226 221 227 45 25 17 14 8 11 7 2 0 357 352 349 349 348 348 349 347 346 343 338 335 334 331 327 323 320 317
226 207 208 210 209 207 208 208 207 218 209 206 222 200 163 96 52 31 16 7 4 6 1 358 355 354 352 350 352 350 348 349 348 347 346 343 341 341 340 335 332 327 322
196 196 202 208 204 201 202 207 209 209 209 212 195 163 130 75 31 16 9 2 357 358 356 354 356 356 355 356 358 356 349 347 347 347 346 345 345 345 343 338 338 333 333
197 203 204 199 196 199 203 204 198 187 200 187 165 118 63 34 20 10 1 356 355 356 356 354 356 355 354 354 358 359 352 350 346 345 344 345 345 344 343 340 343 341 337
196 195 190 186 187 188 186 183 180 179 179 168 148 110 52 25 11 0 357 354 355 356 356 354 351 353 354 350 352 353 354 350 347 345 343 342 341 342 345 344 342 343 344
188 184 184 183 181 179 176 169 178 172 166 159 142 98 42 20 10 2 358 357 358 354 352 352 345 346 351 344 343 346 347 347 347 345 341 337 337 339 343 347 349 352 356
183 178 177 175 173 167 169 173 169 164 163 165 149 82 37 20 7 1 356 353 353 352 352 347 344 342 346 346 346 345 347 347 347 346 343 341 341 343 346 350 355 359 2
178 178 175 172 168 169 165 164 168 166 164 157 135 82 31 8 359 355 354 353 351 351 351 346 343 339 346 349 348 348 348 347 348 344 341 345 350 353 354 357 359 359 0
173 171 169 170 168 163 164 163 162 166 161 149 122 29 6 356 350 350 351 353 350 346 344 340 341 338 340 340 343 346 347 345 344 344 347 353 356 358 358 358 358 1 1